Starlink 30947

operational
NORAD ID: 58473 Int'l Des: 2023-186 Owner: SPXS Country: US Constellation: starlink
LEOCIRCULAR

Starlink 30947について

説明を読み込み中...

リアルタイム位置

3D地球を読み込み中...

次回通過

高度履歴

Altitude vs Time

uPlot chart will show altitude changes over time

軌道要素

1 58473U 23186A 25353.82199666 .00000999 00000-0 89003-4 0 9993
2 58473 43.0027 141.7494 0001327 261.6474 98.4218 15.02532390113836
Epoch: Dec 19, 2025 • Age: 6 hours

現在のステータス

高度 558.5 km
速度 7.58 km/s
衛星直下点 13.16°N, 32.87°E
打ち上げ日 Dec 3, 2023
運用期間 2 years
タイプ internet

技術仕様

分類 Payload
質量 730.00 kg
乾燥質量 700.00 kg
総質量 730.00 kg
長さ 0.30 m
直径 4.10 m
スパン 29.00 m
形状 Box + pan
製造者 SPXS
バスタイプ Starlink V2M
フェーズステータス In Orbit
所有者/国 SPXS/US

大規模コンステレーション

Loading constellations...